W4SNA-2 Weather Reports


time (UTC)temp
F
wind
direction
speed
knots
gust
knots
rain 1hr
in
rain 24hr
in
rain mn
in
humidity
%
barometer
mb
20260504202555 72 240 0.9 6.1 0.00 0.00 0.00 45 1015.1
20260504202055 72 194 0.9 6.1 0.00 0.00 0.00 46 1015.0
20260504201555 72 185 0.9 7.0 0.00 0.00 0.00 44 1015.1
20260504201055 73 189 2.6 7.0 0.00 0.00 0.00 44 1015.1
20260504200555 73 166 1.7 7.0 0.00 0.00 0.00 46 1015.2
20260504200055 73 199 0.9 7.0 0.00 0.00 0.00 45 1015.3
20260504195555 72 192 0.9 7.0 0.00 0.00 0.00 44 1015.4
20260504195055 72 211 0.9 8.7 0.00 0.00 0.00 45 1015.4
20260504194555 72 191 2.6 8.7 0.00 0.00 0.00 44 1015.5
20260504194058 73 190 3.5 7.0 0.00 0.00 0.00 44 1015.5
20260504193555 73 217 0.9 7.8 0.00 0.00 0.00 46 1015.7
20260504193057 73 197 1.7 7.8 0.00 0.00 0.00 44 1015.9
20260504192556 73 0 0.0 6.1 0.00 0.00 0.00 44 1016.0
20260504192057 73 0 0.0 6.1 0.00 0.00 0.00 45 1016.1
20260504191556 72 0 0.0 7.0 0.00 0.00 0.00 47 1016.1
20260504191057 72 205 1.7 7.0 0.00 0.00 0.00 44 1016.1
20260504190555 73 199 0.9 7.0 0.00 0.00 0.00 43 1016.2
20260504190055 73 0 0.0 6.1 0.00 0.00 0.00 46 1016.4
20260504185557 72 248 1.7 6.1 0.00 0.00 0.00 45 1016.4
20260504185055 73 0 0.0 3.5 0.00 0.00 0.00 44 1016.6
20260504184555 72 0 0.0 4.3 0.00 0.00 0.00 44 1016.5
20260504184056 72 271 0.9 4.3 0.00 0.00 0.00 48 1016.6
20260504183558 71 0 0.0 3.5 0.00 0.00 0.00 45 1016.6
20260504183055 71 0 0.0 5.2 0.00 0.00 0.00 46 1016.8
20260504182557 71 0 0.0 5.2 0.00 0.00 0.00 47 1016.8
20260504182056 71 202 0.9 5.2 0.00 0.00 0.00 46 1016.7
20260504181558 70 181 0.9 6.1 0.00 0.00 0.00 47 1016.8
20260504181055 70 187 1.7 6.1 0.00 0.00 0.00 45 1016.8
20260504180555 70 0 0.0 7.8 0.00 0.00 0.00 48 1016.8
20260504180055 70 198 4.3 7.8 0.00 0.00 0.00 45 1016.9
20260504175556 71 293 0.9 3.5 0.00 0.00 0.00 46 1016.9
20260504175055 70 0 0.0 3.5 0.00 0.00 0.00 47 1017.1
20260504174557 69 0 0.0 3.5 0.00 0.00 0.00 48 1017.1
20260504174055 69 0 0.0 5.2 0.00 0.00 0.00 47 1017.0
20260504173555 69 0 0.0 7.8 0.00 0.00 0.00 47 1017.1
20260504173058 69 305 0.9 7.8 0.00 0.00 0.00 46 1017.2
20260504172555 70 0 0.0 2.6 0.00 0.00 0.00 45 1017.2
20260504172056 70 0 0.0 3.5 0.00 0.00 0.00 47 1017.3
20260504171559 70 0 0.0 3.5 0.00 0.00 0.00 46 1017.4
20260504171037 69 0 0.0 5.2 0.00 0.00 0.00 48 1017.5
20260504170536 68 0 0.0 5.2 0.00 0.00 0.00 46 1017.3
20260504151028 63 312 1.7 7.8 0.00 0.00 0.00 47 1019.1
20260504150528 63 0 0.0 3.5 0.00 0.00 0.00 46 1019.2
20260504140839 61 0 0.0 4.3 0.00 0.00 0.00 47 1017.8
20260504140339 62 0 0.0 4.3 0.00 0.00 0.00 47 1017.8
20260504130339 60 0 0.0 0.0 0.00 0.00 0.00 51 1017.9
20260504110339 53 319 0.9 11.3 0.00 0.00 0.00 49 1017.8
20260504100614 53 0 0.0 9.6 0.00 0.00 0.00 47 1017.9
20260504100418 53 0 0.0 7.0 0.00 0.00 0.00 47 1017.8
20260504100114 53 0 0.0 7.0 0.00 0.00 0.00 47 1017.8
20260504090114 53 319 2.6 7.8 0.00 0.00 0.00 44 1017.8
20260504081614 52 319 5.2 11.3 0.00 0.00 0.00 42 1017.9
20260504081114 52 318 4.3 11.3 0.00 0.00 0.00 43 1017.9
20260504080614 52 311 4.3 10.4 0.00 0.00 0.00 46 1017.9
20260504080114 52 307 4.3 11.3 0.00 0.00 0.00 47 1017.9
20260504070143 54 0 0.0 8.7 0.00 0.00 0.00 55 1017.9
20260504060145 53 0 0.0 9.6 0.00 0.00 0.00 57 1018.0
20260504050309 54 0 0.0 1.7 0.00 0.00 0.00 51 1018.4
20260504045738 54 0 0.0 9.6 0.00 0.00 0.00 50 1018.4
20260504045237 55 0 0.0 9.6 0.00 0.00 0.00 48 1018.4
20260504044738 54 0 0.0 5.2 0.00 0.00 0.00 48 1018.4
20260504044237 54 0 0.0 0.0 0.00 0.00 0.00 47 1018.5
20260504043738 54 0 0.0 0.0 0.00 0.00 0.00 48 1018.5
20260504043239 54 0 0.0 0.9 0.00 0.00 0.00 48 1018.5
20260504042738 55 0 0.0 0.9 0.00 0.00 0.00 48 1018.6
20260504042238 54 0 0.0 0.0 0.00 0.00 0.00 48 1018.6
20260504041738 55 0 0.0 8.7 0.00 0.00 0.00 47 1018.6
20260504041238 54 0 0.0 8.7 0.00 0.00 0.00 48 1018.5
20260504040738 54 0 0.0 2.6 0.00 0.00 0.00 48 1018.6
20260504040239 54 0 0.0 0.9 0.00 0.00 0.00 48 1018.5
20260504035738 55 0 0.0 0.9 0.00 0.00 0.00 48 1017.5
20260504035238 55 0 0.0 1.7 0.00 0.00 0.00 47 1017.5
20260504034738 55 0 0.0 3.5 0.00 0.00 0.00 46 1017.3
20260504034238 55 0 0.0 6.1 0.00 0.00 0.00 46 1017.4
20260504033738 55 0 0.0 6.1 0.00 0.00 0.00 47 1017.5
20260504033239 55 0 0.0 4.3 0.00 0.00 0.00 47 1017.6
20260504032738 54 0 0.0 9.6 0.00 0.00 0.00 47 1017.6
20260504032238 54 0 0.0 9.6 0.00 0.00 0.00 48 1017.6
20260504031738 54 0 0.0 3.5 0.00 0.00 0.00 48 1017.7
20260504031238 54 0 0.0 3.5 0.00 0.00 0.00 48 1017.7
20260504030738 54 0 0.0 6.1 0.00 0.00 0.00 48 1017.8
20260504030239 54 0 0.0 6.1 0.00 0.00 0.00 48 1017.8
20260504025738 55 0 0.0 6.1 0.00 0.00 0.00 48 1017.8
20260504025238 55 0 0.0 7.8 0.00 0.00 0.00 48 1017.6
20260504024738 55 0 0.0 7.8 0.00 0.00 0.00 47 1017.6
20260504024238 55 0 0.0 7.0 0.00 0.00 0.00 46 1017.6
20260504023738 55 0 0.0 7.8 0.00 0.00 0.00 46 1017.6
20260504023238 55 197 0.9 7.8 0.00 0.00 0.00 45 1017.7
20260504022738 55 0 0.0 7.8 0.00 0.00 0.00 46 1017.6
20260504022238 55 0 0.0 6.1 0.00 0.00 0.00 46 1017.6
20260504021738 55 0 0.0 6.1 0.00 0.00 0.00 46 1017.6
20260504021127 55 0 0.0 2.6 0.00 0.00 0.00 46 1017.5
20260504020338 55 197 2.6 8.7 0.00 0.00 0.00 44 1017.4
20260504015838 55 196 2.6 8.7 0.00 0.00 0.00 44 1017.3
20260504015338 55 196 2.6 8.7 0.00 0.00 0.00 44 1017.2
20260504014838 55 196 4.3 8.7 0.00 0.00 0.00 44 1017.1
20260504014338 55 194 3.5 9.6 0.00 0.00 0.00 44 1016.9
20260504013838 55 192 4.3 9.6 0.00 0.00 0.00 44 1016.9
20260504013338 55 187 2.6 8.7 0.00 0.00 0.00 44 1016.8
20260504012838 55 187 3.5 7.8 0.00 0.00 0.00 44 1016.7
20260504012338 55 187 1.7 5.2 0.00 0.00 0.00 45 1016.8
20260504011838 55 189 1.7 7.0 0.00 0.00 0.00 45 1016.7
20260504011338 55 190 2.6 7.0 0.00 0.00 0.00 44 1016.6
20260504010737 55 191 2.6 7.8 0.00 0.00 0.00 44 1016.6
20260504010239 55 191 2.6 8.7 0.00 0.00 0.00 44 1016.6
20260504005737 55 189 3.5 8.7 0.00 0.00 0.00 44 1016.5
20260504005238 55 191 1.7 5.2 0.00 0.00 0.00 44 1016.5
20260504004412 55 199 0.9 4.3 0.00 0.00 0.00 44 1016.6
20260504003550 56 200 0.9 5.2 0.00 0.00 0.00 44 1016.5
20260504003053 56 200 1.7 7.8 0.00 0.00 0.00 44 1016.6
20260504002550 56 200 1.7 7.8 0.00 0.00 0.00 44 1016.6
20260504002053 56 200 2.6 7.8 0.00 0.00 0.00 44 1016.6
20260504001550 56 200 2.6 8.7 0.00 0.00 0.00 44 1016.5
20260504001050 56 200 2.6 8.7 0.00 0.00 0.00 44 1016.4
20260504000550 56 200 0.9 8.7 0.00 0.00 0.00 44 1016.4
20260504000055 56 200 3.5 14.8 0.00 0.00 0.00 44 1016.4
20260503235550 56 200 2.6 14.8 0.00 0.00 0.00 44 1016.3
20260503235051 56 199 2.6 10.4 0.00 0.00 0.00 44 1016.3
20260503234550 56 198 3.5 8.7 0.00 0.00 0.00 43 1016.3
20260503234051 56 197 2.6 8.7 0.00 0.00 0.00 43 1016.3
20260503233549 56 189 3.5 7.8 0.00 0.00 0.00 43 1016.3
20260503233051 56 189 1.7 8.7 0.00 0.00 0.00 42 1016.3
20260503232550 56 182 3.5 8.7 0.00 0.00 0.00 41 1016.3
20260503232052 57 189 1.7 7.8 0.00 0.00 0.00 40 1016.3
20260503231550 57 201 4.3 7.8 0.00 0.00 0.00 39 1016.3
20260503231051 57 202 3.5 7.8 0.00 0.00 0.00 38 1016.3
20260503230550 57 201 1.7 8.7 0.00 0.00 0.00 38 1016.4
20260503230053 57 201 1.7 8.7 0.00 0.00 0.00 38 1016.4
20260503225550 57 200 2.6 8.7 0.00 0.00 0.00 38 1016.4
20260503225155 57 0 0.0 11.3 0.00 0.00 0.00 38 1016.4
20260503225053 57 0 0.0 11.3 0.00 0.00 0.00 38 1016.4
20260503224550 57 199 1.7 11.3 0.00 0.00 0.00 37 1016.4
20260503224051 58 195 2.6 8.7 0.00 0.00 0.00 37 1016.4
20260503223550 58 0 0.0 4.3 0.00 0.00 0.00 35 1016.4
20260503223051 58 0 0.0 0.0 0.00 0.00 0.00 35 1016.4
20260503222550 58 0 0.0 0.0 0.00 0.00 0.00 35 1016.5
20260503222051 58 0 0.0 4.3 0.00 0.00 0.00 34 1016.5
20260503221551 58 0 0.0 4.3 0.00 0.00 0.00 34 1016.6
20260503221051 58 0 0.0 4.3 0.00 0.00 0.00 34 1016.6
20260503220550 58 0 0.0 5.2 0.00 0.00 0.00 35 1016.7
20260503220051 58 0 0.0 5.2 0.00 0.00 0.00 35 1016.8
20260503215550 59 0 0.0 5.2 0.00 0.00 0.00 34 1016.8
20260503215054 59 0 0.0 4.3 0.00 0.00 0.00 36 1016.9
20260503213538 59 210 0.9 6.1 0.00 0.00 0.00 33 1017.0
20260503213037 59 0 0.0 5.2 0.00 0.00 0.00 36 1017.0
20260503212537 59 0 0.0 5.2 0.00 0.00 0.00 32 1017.1
20260503212037 59 0 0.0 3.5 0.00 0.00 0.00 33 1017.1
20260503211537 60 0 0.0 4.3 0.00 0.00 0.00 33 1017.2
20260503211037 61 196 0.9 4.3 0.00 0.00 0.00 32 1017.2
20260503210543 61 0 0.0 2.6 0.00 0.00 0.00 33 1017.2
20260503210037 60 0 0.0 2.6 0.00 0.00 0.00 34 1017.3
20260503205537 60 0 0.0 4.3 0.00 0.00 0.00 33 1017.2
20260503205037 60 0 0.0 7.8 0.00 0.00 0.00 35 1017.3
20260503204537 60 194 1.7 7.8 0.00 0.00 0.00 34 1017.3
20260503204037 60 178 0.9 7.0 0.00 0.00 0.00 33 1017.3
20260503203538 61 183 2.6 7.0 0.00 0.00 0.00 34 1017.3
20260503203037 61 289 0.9 9.6 0.00 0.00 0.00 33 1017.5